Location: Koslow
(50.3020°N, 18.5663°E)
Time: 02:48:33
(UTC+00:00)

STARLINK-1357 - Pass Details

Date: 19 June 2021
Orbit: 546 x 548 km, 53.1° (Epoch: 03 August)

Event Time Altitude Azimuth Distance (km) Brightness Sun altitude
Exits shadow 23:47:51 - 130° (SE) 2,363 6.6 -15.1°
Enters shadow 00:48:06 -69° 240° (WSW) 12,474 10.4 -11.6°
Maximum altitude 01:26:52 26° 139° (SE) 1,082 5.0 -8.2°
